Location: Unspecified
(41.1850°N, 73.2650°W)
Time: 13:49:14
(UTC+00:00)

Daily predictions for brighter satellites

Satellite Brightness Start Highest point End
(mag) Time Altitude Azimuth Time Altitude Azimuth Time Altitude Azimuth
Cosmos 1674 3.2 23:11:20 10° N 23:14:38 34° ENE 23:17:57 10° SE
Cosmos 2333 Rocket 2.7 23:11:02 10° S 23:16:06 36° ESE 23:21:13 10° NE
Cosmos 1726 3.2 23:14:33 10° SE 23:17:09 21° E 23:19:46 10° NE
Cosmos 2056 Rocket 3.8 23:14:37 10° NNW 23:19:52 77° WSW 23:25:10 10° SSE
Cosmos 2360 Rocket 2.3 23:14:44 10° S 23:20:10 53° ESE 23:25:39 10° NNE
COSMOS 2428 4.3 23:19:31 10° ESE 23:21:47 12° E 23:24:02 10° ENE
Cosmos 724 4.4 23:16:27 10° NNW 23:22:31 67° NE 23:28:24 10° SE
Cosmos 1842 3.1 23:20:06 10° N 23:23:56 77° E 23:27:43 10° SSE
JB-3 4.2 23:21:11 10° NNE 23:25:00 75° ESE 23:28:50 10° S
ADEOS 3.8 23:20:47 10° S 23:26:00 77° WSW 23:31:14 10° NNW
Cosmos 1470 Rocket 4.2 23:23:42 10° SSE 23:27:32 32° E 23:31:26 10° NNE
Cosmos 2084 3.7 23:25:42 10° NNW 23:29:18 41° NE 23:32:58 10° ESE
ISS -1.2 23:28:52 10° NW 23:30:47 14° N 23:32:42 10° NNE
Okean 3 4.3 23:32:42 10° NNE 23:36:18 28° ENE 23:39:52 10° SE
Iridium 2 3.5 23:33:17 10° N 23:36:40 50° E 23:39:59 10° SSE
ATLAS 3B R/B 3.8 23:35:49 10° SSE 23:40:31 20° ESE 23:45:25 10° ENE
Cosmos 1452 Rocket 3.7 23:37:52 10° N 23:43:02 52° ENE 23:48:08 10° SE
Cosmos 494 Rocket 4.1 23:37:50 10° SSW 23:43:05 87° WNW 23:48:21 10° NNE
Cosmos 2285 Rocket 4.3 23:36:49 10° SSW 23:43:08 76° WNW 23:49:28 10° NNE
CZ-4B R/B 3.2 23:40:14 10° S 23:43:47 59° WSW 23:47:16 10° NNW
Meteor 2-10 4.3 23:41:23 10° S 23:46:56 55° E 23:52:30 10° NNE
Cosmos 1805 3.9 23:44:25 10° SSE 23:47:45 30° E 23:51:05 10° NNE
Cosmos 1048 Rocket 4.0 23:42:36 10° SSW 23:47:57 86° ESE 23:53:22 10° NNE
PAYLOAD B 4.2 23:47:28 10° SSE 23:53:02 73° ENE 23:58:35 10° N
USA 186 3.3 23:55:02 18° ENE 23:55:02 18° ENE 23:56:42 10° NNE
SL-14 R/B 4.2 23:51:39 10° NNE 23:55:04 27° ENE 23:56:25 22° ESE
COSMOS 2455 4.5 23:51:22 10° N 23:55:19 18° NE 23:57:55 14° ENE
NOSS 2-3 (C) 3.5 23:52:09 10° S 23:55:40 43° ESE 23:59:26 10° NE
